Time,TemperatureF,DewpointF,PressureIn,WindDirection,WindDirectionDegrees,WindSpeedMPH,WindSpeedGustMPH,Humidity,HourlyPrecipIn,Conditions,Clouds,dailyrainin,SolarRadiationWatts/m^2,SoftwareType,DateUTC
2013-06-17 00:02:00,68.0,19.0,-100.00,South,182,7.0,10.0,15,0.00,,,-99.99,0.000000,,2013-06-17 06:02:00,
2013-06-17 00:12:00,69.0,16.0,-100.00,South,189,8.0,10.0,13,0.00,,,-99.99,0.000000,,2013-06-17 06:12:00,
2013-06-17 00:22:00,70.0,17.0,-100.00,South,185,9.0,11.0,13,0.00,,,-99.99,0.000000,,2013-06-17 06:22:00,
2013-06-17 00:32:00,70.0,17.0,-100.00,South,184,9.0,12.0,13,0.00,,,-99.99,0.000000,,2013-06-17 06:32:00,
2013-06-17 00:43:00,70.0,17.0,-100.00,South,179,9.0,11.0,13,0.00,,,-99.99,0.000000,,2013-06-17 06:43:00,
2013-06-17 00:53:00,70.0,17.0,-100.00,South,179,9.0,11.0,13,0.00,,,-99.99,0.000000,,2013-06-17 06:53:00,
2013-06-17 01:11:00,72.0,15.0,-100.00,South,177,10.0,12.0,11,0.00,,,-99.99,0.000000,,2013-06-17 07:11:00,
2013-06-17 01:42:00,63.0,21.0,-100.00,NW,309,3.0,5.0,20,0.00,,,-99.99,0.000000,,2013-06-17 07:42:00,
2013-06-17 01:52:00,63.0,21.0,-100.00,NW,309,3.0,5.0,20,0.00,,,-99.99,0.000000,,2013-06-17 07:52:00,
2013-06-17 02:01:00,61.0,20.0,-100.00,SW,235,3.0,6.0,21,0.00,,,-99.99,0.000000,,2013-06-17 08:01:00,
2013-06-17 02:11:00,61.0,20.0,-100.00,SW,235,3.0,6.0,21,0.00,,,-99.99,0.000000,,2013-06-17 08:11:00,
2013-06-17 02:22:00,61.0,18.0,-100.00,South,190,3.0,5.0,19,0.00,,,-99.99,0.000000,,2013-06-17 08:22:00,
2013-06-17 02:33:00,58.0,21.0,-100.00,SSW,194,2.0,4.0,24,0.00,,,-99.99,0.000000,,2013-06-17 08:33:00,
2013-06-17 02:43:00,60.0,20.0,-100.00,WSW,249,3.0,6.0,21,0.00,,,-99.99,0.000000,,2013-06-17 08:43:00,
2013-06-17 02:50:00,56.0,27.0,-100.00,WSW,238,3.0,6.0,33,0.00,,,-99.99,0.000000,,2013-06-17 08:50:00,
2013-06-17 02:52:00,60.0,20.0,-100.00,WSW,249,3.0,6.0,21,0.00,,,-99.99,0.000000,,2013-06-17 08:52:00,
2013-06-17 03:02:00,58.0,22.0,-100.00,WSW,240,3.0,5.0,25,0.00,,,-99.99,0.000000,,2013-06-17 09:02:00,
2013-06-17 03:11:00,56.0,25.0,-100.00,West,266,3.0,6.0,30,0.00,,,-99.99,0.000000,,2013-06-17 09:11:00,
2013-06-17 03:22:00,56.0,27.0,-100.00,WSW,238,3.0,6.0,33,0.00,,,-99.99,0.000000,,2013-06-17 09:22:00,
2013-06-17 03:33:00,56.0,27.0,-100.00,WSW,238,3.0,6.0,33,0.00,,,-99.99,0.000000,,2013-06-17 09:33:00,
2013-06-17 03:43:00,56.0,27.0,-100.00,WSW,238,3.0,6.0,33,0.00,,,-99.99,0.000000,,2013-06-17 09:43:00,
2013-06-17 04:22:00,55.0,23.0,-100.00,West,273,3.0,5.0,28,0.00,,,-99.99,0.000000,,2013-06-17 10:22:00,
2013-06-17 04:33:00,54.0,24.0,-100.00,WSW,250,3.0,5.0,30,0.00,,,-99.99,0.000000,,2013-06-17 10:33:00,
2013-06-17 04:43:00,55.0,21.0,-100.00,SSW,198,4.0,6.0,26,0.00,,,-99.99,0.000000,,2013-06-17 10:43:00,
2013-06-17 04:53:00,55.0,21.0,-100.00,SSW,198,4.0,6.0,26,0.00,,,-99.99,0.000000,,2013-06-17 10:53:00,
2013-06-17 05:02:00,56.0,22.0,-100.00,SSE,166,6.0,8.0,26,0.00,,,-99.99,0.000000,,2013-06-17 11:02:00,
2013-06-17 05:11:00,56.0,22.0,-100.00,SSE,166,6.0,8.0,26,0.00,,,-99.99,0.000000,,2013-06-17 11:11:00,
2013-06-17 05:23:00,57.0,19.0,-100.00,South,181,6.0,8.0,22,0.00,,,-99.99,0.000000,,2013-06-17 11:23:00,
2013-06-17 05:33:00,61.0,21.0,-100.00,South,169,5.0,9.0,21,0.00,,,-99.99,0.000000,,2013-06-17 11:33:00,
2013-06-17 05:43:00,59.0,19.0,-100.00,SW,229,3.0,4.0,21,0.00,,,-99.99,0.000000,,2013-06-17 11:43:00,
2013-06-17 05:53:00,59.0,19.0,-100.00,SW,229,3.0,4.0,21,0.00,,,-99.99,0.000000,,2013-06-17 11:53:00,
2013-06-17 06:02:00,54.0,24.0,-100.00,South,175,4.0,6.0,31,0.00,,,-99.99,1.000000,,2013-06-17 12:02:00,
2013-06-17 06:11:00,54.0,24.0,-100.00,South,175,4.0,6.0,31,0.00,,,-99.99,1.000000,,2013-06-17 12:11:00,
2013-06-17 06:22:00,61.0,17.0,-100.00,SSE,162,6.0,9.0,18,0.00,,,-99.99,6.000000,,2013-06-17 12:22:00,
2013-06-17 06:33:00,62.0,18.0,-100.00,South,171,6.0,9.0,18,0.00,,,-99.99,11.000000,,2013-06-17 12:33:00,
2013-06-17 06:43:00,60.0,19.0,-100.00,South,176,5.0,8.0,20,0.00,,,-99.99,16.000000,,2013-06-17 12:43:00,
2013-06-17 07:11:00,60.0,20.0,-100.00,SSW,213,4.0,7.0,21,0.00,,,-99.99,87.000000,,2013-06-17 13:11:00,
2013-06-17 07:22:00,61.0,22.0,-100.00,SW,216,4.0,6.0,22,0.00,,,-99.99,113.000000,,2013-06-17 13:22:00,
2013-06-17 07:32:00,61.0,32.0,-100.00,South,174,2.0,4.0,33,0.00,,,-99.99,169.000000,,2013-06-17 13:32:00,
2013-06-17 07:43:00,61.0,35.0,-100.00,SW,224,3.0,4.0,37,0.00,,,-99.99,198.000000,,2013-06-17 13:43:00,
2013-06-17 07:52:00,61.0,35.0,-100.00,SW,224,3.0,4.0,37,0.00,,,-99.99,198.000000,,2013-06-17 13:52:00,
2013-06-17 08:02:00,61.0,36.0,-100.00,West,271,1.0,3.0,39,0.00,,,-99.99,260.000000,,2013-06-17 14:02:00,
2013-06-17 08:11:00,63.0,37.0,-100.00,South,191,0.0,3.0,38,0.00,,,-99.99,292.000000,,2013-06-17 14:11:00,
2013-06-17 08:22:00,63.0,37.0,-100.00,South,191,0.0,3.0,38,0.00,,,-99.99,292.000000,,2013-06-17 14:22:00,
2013-06-17 09:43:00,70.0,42.0,-100.00,West,271,2.0,3.0,35,0.00,,,-99.99,581.000000,,2013-06-17 15:43:00,
2013-06-17 10:02:00,74.0,38.0,-100.00,SW,236,1.0,2.0,27,0.00,,,-99.99,642.000000,,2013-06-17 16:02:00,
2013-06-17 10:11:00,74.0,36.0,-100.00,NW,321,2.0,3.0,26,0.00,,,-99.99,672.000000,,2013-06-17 16:11:00,
2013-06-17 10:22:00,74.0,36.0,-100.00,NW,321,2.0,3.0,26,0.00,,,-99.99,672.000000,,2013-06-17 16:22:00,
2013-06-17 10:33:00,76.0,37.0,-100.00,SSE,166,3.0,4.0,25,0.00,,,-99.99,727.000000,,2013-06-17 16:33:00,
2013-06-17 10:43:00,76.0,39.0,-100.00,ENE,69,3.0,5.0,26,0.00,,,-99.99,754.000000,,2013-06-17 16:43:00,
2013-06-17 10:53:00,76.0,30.0,-100.00,ENE,68,3.0,5.0,18,0.00,,,-99.99,778.000000,,2013-06-17 16:53:00,
2013-06-17 11:02:00,77.0,35.0,-100.00,South,169,3.0,5.0,22,0.00,,,-99.99,802.000000,,2013-06-17 17:02:00,
2013-06-17 11:11:00,77.0,35.0,-100.00,South,169,3.0,5.0,22,0.00,,,-99.99,802.000000,,2013-06-17 17:11:00,
2013-06-17 11:22:00,78.0,37.0,-100.00,West,279,3.0,4.0,23,0.00,,,-99.99,849.000000,,2013-06-17 17:22:00,
2013-06-17 11:33:00,78.0,37.0,-100.00,West,279,3.0,4.0,23,0.00,,,-99.99,849.000000,,2013-06-17 17:33:00,
2013-06-17 11:43:00,79.0,31.0,-100.00,WSW,241,3.0,4.0,17,0.00,,,-99.99,888.000000,,2013-06-17 17:43:00,
2013-06-17 11:52:00,79.0,31.0,-100.00,WSW,241,3.0,4.0,17,0.00,,,-99.99,888.000000,,2013-06-17 17:52:00,
2013-06-17 12:01:00,80.0,32.0,-100.00,South,177,2.0,4.0,17,0.00,,,-99.99,923.000000,,2013-06-17 18:01:00,
2013-06-17 12:11:00,80.0,32.0,-100.00,South,177,2.0,4.0,17,0.00,,,-99.99,923.000000,,2013-06-17 18:11:00,
2013-06-17 12:23:00,81.0,33.0,-100.00,SW,235,2.0,4.0,18,0.00,,,-99.99,938.000000,,2013-06-17 18:23:00,
2013-06-17 12:33:00,81.0,26.0,-100.00,SSW,194,3.0,5.0,13,0.00,,,-99.99,953.000000,,2013-06-17 18:33:00,
2013-06-17 12:42:00,82.0,30.0,-100.00,SE,129,3.0,5.0,15,0.00,,,-99.99,974.000000,,2013-06-17 18:42:00,
2013-06-17 12:50:00,83.0,25.0,-100.00,East,87,5.0,8.0,12,0.00,,,-99.99,986.000000,,2013-06-17 18:50:00,
2013-06-17 12:53:00,82.0,31.0,-100.00,ESE,116,3.0,5.0,16,0.00,,,-99.99,982.000000,,2013-06-17 18:53:00,
2013-06-17 13:02:00,82.0,38.0,-100.00,SSE,167,3.0,6.0,21,0.00,,,-99.99,984.000000,,2013-06-17 19:02:00,
2013-06-17 13:22:00,83.0,25.0,-100.00,East,87,5.0,8.0,12,0.00,,,-99.99,986.000000,,2013-06-17 19:22:00,
2013-06-17 13:33:00,83.0,25.0,-100.00,East,87,5.0,8.0,12,0.00,,,-99.99,986.000000,,2013-06-17 19:33:00,
2013-06-17 13:43:00,83.0,25.0,-100.00,East,87,5.0,8.0,12,0.00,,,-99.99,986.000000,,2013-06-17 19:43:00,
2013-06-17 14:34:00,84.0,37.0,-100.00,South,185,4.0,7.0,19,0.00,,,-99.99,987.000000,,2013-06-17 20:34:00,
2013-06-17 14:43:00,86.0,34.0,-100.00,ENE,63,4.0,7.0,16,0.00,,,-99.99,976.000000,,2013-06-17 20:43:00,
2013-06-17 14:52:00,86.0,34.0,-100.00,ENE,63,4.0,7.0,16,0.00,,,-99.99,976.000000,,2013-06-17 20:52:00,
2013-06-17 15:01:00,86.0,35.0,-100.00,ESE,114,5.0,7.0,16,0.00,,,-99.99,950.000000,,2013-06-17 21:01:00,
2013-06-17 15:12:00,86.0,35.0,-100.00,ESE,114,5.0,7.0,16,0.00,,,-99.99,950.000000,,2013-06-17 21:12:00,
2013-06-17 15:22:00,86.0,30.0,-100.00,ENE,74,5.0,7.0,13,0.00,,,-99.99,922.000000,,2013-06-17 21:22:00,
2013-06-17 15:33:00,87.0,32.0,-100.00,South,176,4.0,7.0,14,0.00,,,-99.99,911.000000,,2013-06-17 21:33:00,
2013-06-17 15:43:00,87.0,32.0,-100.00,SSE,147,6.0,11.0,14,0.00,,,-99.99,885.000000,,2013-06-17 21:43:00,
2013-06-17 15:52:00,87.0,32.0,-100.00,SSE,147,6.0,11.0,14,0.00,,,-99.99,885.000000,,2013-06-17 21:52:00,
2013-06-17 16:11:00,87.0,26.0,-100.00,West,277,6.0,9.0,11,0.00,,,-99.99,831.000000,,2013-06-17 22:11:00,
2013-06-17 16:22:00,88.0,34.0,-100.00,East,84,5.0,7.0,15,0.00,,,-99.99,810.000000,,2013-06-17 22:22:00,
2013-06-17 16:33:00,88.0,31.0,-100.00,ESE,122,4.0,8.0,13,0.00,,,-99.99,785.000000,,2013-06-17 22:33:00,
2013-06-17 16:43:00,88.0,25.0,-100.00,ESE,115,4.0,6.0,10,0.00,,,-99.99,759.000000,,2013-06-17 22:43:00,
2013-06-17 16:53:00,88.0,33.0,-100.00,East,85,4.0,6.0,14,0.00,,,-99.99,734.000000,,2013-06-17 22:53:00,
2013-06-17 17:02:00,88.0,31.0,-100.00,East,94,5.0,8.0,13,0.00,,,-99.99,711.000000,,2013-06-17 23:02:00,
2013-06-17 17:11:00,88.0,31.0,-100.00,East,94,5.0,8.0,13,0.00,,,-99.99,711.000000,,2013-06-17 23:11:00,
2013-06-17 17:32:00,88.0,29.0,-100.00,SSW,198,5.0,13.0,12,0.00,,,-99.99,631.000000,,2013-06-17 23:32:00,
2013-06-17 17:42:00,89.0,25.0,-100.00,WNW,293,5.0,9.0,10,0.00,,,-99.99,603.000000,,2013-06-17 23:42:00,
2013-06-17 17:50:00,88.0,31.0,-100.00,NNW,327,5.0,9.0,13,0.00,,,-99.99,514.000000,,2013-06-17 23:50:00,
2013-06-17 17:52:00,88.0,31.0,-100.00,WNW,295,7.0,14.0,13,0.00,,,-99.99,571.000000,,2013-06-17 23:52:00,
2013-06-17 18:01:00,89.0,35.0,-100.00,NW,317,4.0,7.0,15,0.00,,,-99.99,543.000000,,2013-06-18 00:01:00,
2013-06-17 18:12:00,89.0,35.0,-100.00,NW,317,4.0,7.0,15,0.00,,,-99.99,543.000000,,2013-06-18 00:12:00,
2013-06-17 18:22:00,88.0,31.0,-100.00,NNW,327,5.0,9.0,13,0.00,,,-99.99,514.000000,,2013-06-18 00:22:00,
2013-06-17 18:32:00,88.0,31.0,-100.00,NNW,327,5.0,9.0,13,0.00,,,-99.99,514.000000,,2013-06-18 00:32:00,
2013-06-17 18:43:00,88.0,31.0,-100.00,NNW,327,5.0,9.0,13,0.00,,,-99.99,514.000000,,2013-06-18 00:43:00,
2013-06-17 19:23:00,87.0,45.0,-100.00,SE,143,2.0,4.0,23,0.00,,,-99.99,296.000000,,2013-06-18 01:23:00,
2013-06-17 19:34:00,87.0,30.0,-100.00,SW,234,1.0,3.0,13,0.00,,,-99.99,266.000000,,2013-06-18 01:34:00,
2013-06-17 19:44:00,85.0,32.0,-100.00,West,277,4.0,7.0,15,0.00,,,-99.99,235.000000,,2013-06-18 01:44:00,
2013-06-17 19:53:00,85.0,32.0,-100.00,West,277,4.0,7.0,15,0.00,,,-99.99,235.000000,,2013-06-18 01:53:00,
2013-06-17 20:02:00,84.0,19.0,-100.00,West,267,3.0,7.0,9,0.00,,,-99.99,177.000000,,2013-06-18 02:02:00,
2013-06-17 20:11:00,84.0,19.0,-100.00,West,267,3.0,7.0,9,0.00,,,-99.99,177.000000,,2013-06-18 02:11:00,
2013-06-17 20:22:00,80.0,35.0,-100.00,SW,229,4.0,5.0,20,0.00,,,-99.99,121.000000,,2013-06-18 02:22:00,
2013-06-17 20:53:00,74.0,32.0,-100.00,SSW,195,6.0,7.0,22,0.00,,,-99.99,52.000000,,2013-06-18 02:53:00,
2013-06-17 21:02:00,71.0,29.0,-100.00,South,173,6.0,8.0,21,0.00,,,-99.99,18.000000,,2013-06-18 03:02:00,
2013-06-17 21:33:00,69.0,24.0,-100.00,South,171,6.0,8.0,18,0.00,,,-99.99,1.000000,,2013-06-18 03:33:00,
2013-06-17 21:42:00,71.0,21.0,-100.00,South,179,7.0,9.0,15,0.00,,,-99.99,0.000000,,2013-06-18 03:42:00,
2013-06-17 21:53:00,72.0,19.0,-100.00,SSE,168,8.0,11.0,13,0.00,,,-99.99,0.000000,,2013-06-18 03:53:00,
2013-06-17 22:01:00,73.0,19.0,-100.00,South,171,8.0,11.0,13,0.00,,,-99.99,0.000000,,2013-06-18 04:01:00,
2013-06-17 22:11:00,73.0,17.0,-100.00,South,178,9.0,12.0,12,0.00,,,-99.99,0.000000,,2013-06-18 04:11:00,
2013-06-17 22:22:00,73.0,17.0,-100.00,South,178,9.0,12.0,12,0.00,,,-99.99,0.000000,,2013-06-18 04:22:00,
2013-06-17 22:34:00,75.0,17.0,-100.00,South,172,10.0,15.0,11,0.00,,,-99.99,0.000000,,2013-06-18 04:34:00,
2013-06-17 22:42:00,74.0,16.0,-100.00,South,171,10.0,13.0,11,0.00,,,-99.99,0.000000,,2013-06-18 04:42:00,
2013-06-17 22:50:00,73.0,16.0,-100.00,South,185,9.0,12.0,11,0.00,,,-99.99,0.000000,,2013-06-18 04:50:00,
2013-06-17 22:53:00,74.0,16.0,-100.00,South,171,10.0,13.0,11,0.00,,,-99.99,0.000000,,2013-06-18 04:53:00,
2013-06-17 23:02:00,73.0,15.0,-100.00,South,186,8.0,12.0,11,0.00,,,-99.99,0.000000,,2013-06-18 05:02:00,
2013-06-17 23:22:00,73.0,16.0,-100.00,South,185,9.0,12.0,11,0.00,,,-99.99,0.000000,,2013-06-18 05:22:00,